#timestamp,LO_Frequency,Hit 
1499108415.2,286047037.7,N
1499108435.0,286047037.6,N
1499108435.9,286047037.6,N
1499108455.8,286047039.5,N
1499108475.6,286047039.4,N
1499108495.4,286047036.8,N
1499108515.2,286047039.6,N
1499108535.1,286047037.3,N
1499108536.0,286047037.3,N
1499108555.8,286047037.5,N
1499108575.6,286047038.5,N
1499108595.5,286047040.9,N
1499108615.3,286047040.8,N
1499108635.1,286047042.4,N
1499108655.9,286047042.8,N
1499108675.7,286047040.6,N
1499108695.5,286047039.8,N
1499108715.4,286047042.8,N
1499108735.2,286047043.4,N
1499108755.0,286047041.3,N
1499108755.9,286047041.3,N
1499108775.8,286047043.0,N
1499108795.6,286047044.3,N
1499108815.4,286047041.6,N
1499108835.2,286047043.0,N
1499108855.1,286047042.9,N
1499108856.0,286047042.9,N
1499108875.8,286047043.4,N
1499108895.6,286047045.8,N
1499108915.5,286047045.1,N
1499108935.3,286047043.0,N
1499108955.1,286047045.5,N
1499108975.9,286047046.8,N
1499108995.7,286047048.2,N
1499109015.5,286047048.5,N
1499109035.4,286047048.7,N
1499109055.2,286047047.2,N
1499109075.0,286047044.6,N
1499109075.9,286047044.6,N
1499109095.8,286047046.8,N
1499109115.6,286047045.0,N
1499109135.4,286047045.5,N
1499109155.3,286047043.2,N
1499109175.1,286047046.6,N
1499109176.0,286047046.6,N
1499109195.8,286047049.0,N
1499109215.6,286047047.0,N
1499109235.5,286047045.3,N
1499109255.3,286047044.5,N
1499109275.1,286047047.1,N
1499109295.9,286047048.7,N
1499109315.7,286047048.8,N
1499109335.5,286047046.9,N
1499109355.4,286047047.9,N
1499109375.2,286047048.4,N
1499109395.0,286047048.0,N
1499109395.9,286047048.0,N
1499109415.8,286047050.8,N
1499109435.6,286047050.2,N
1499109455.4,286047048.9,N
1499109475.3,286047050.6,N
1499109495.1,286047049.5,N
1499109496.0,286047049.5,N
1499109515.8,286047049.6,N
1499109535.7,286047048.3,N
1499109555.5,286047049.7,N
1499109575.3,286047047.7,N
1499109595.1,286047048.6,N
1499109615.9,286047049.7,N
1499109635.7,286047047.7,N
1499109655.5,286047049.3,N
1499109675.4,286047050.6,N
1499109695.2,286047049.9,N
1499109715.0,286047053.8,N
1499109715.9,286047053.8,N
1499109735.8,286047053.4,N
1499109755.6,286047051.8,N
1499109775.4,286047053.9,N
1499109795.3,286047051.7,N
1499109815.1,286047051.6,N
1499109816.0,286047051.6,N
1499109835.8,286047051.0,N
1499109855.7,286047051.9,N
1499109875.5,286047050.0,N
1499109895.3,286047054.0,N
1499109915.2,286047053.2,N
1499109935.9,286047052.8,N
1499109955.7,286047055.3,N
1499109975.6,286047054.2,N
1499109995.4,286047055.1,N
1499110015.2,286047054.4,N
1499110035.0,286047055.3,N
1499110036.0,286047055.3,N
1499110055.8,286047055.3,N
1499110075.6,286047055.0,N
1499110095.4,286047054.8,N
1499110115.3,286047057.2,N
1499110135.1,286047057.2,N
1499110155.8,286047055.0,N
1499110175.7,286047054.9,N
1499110195.5,286047054.2,N
1499110215.3,286047056.9,N
1499110235.2,286047056.1,N
1499110255.9,286047056.0,N
1499110275.7,286047056.0,N
1499110295.6,286047055.7,N
1499110315.4,286047056.8,N
1499110335.2,286047054.9,N
1499110355.1,286047056.8,N
1499110356.0,286047056.8,N
1499110375.8,286047056.1,N
1499110395.6,286047055.7,N
1499110415.5,286047058.1,N
1499110435.3,286047058.7,N
1499110455.1,286047058.8,N
1499110475.8,286047060.3,N
1499110495.7,286047060.3,N
1499110515.5,286047058.2,N
1499110535.3,286047057.8,N
1499110555.2,286047060.1,N
1499110575.9,286047059.4,N
1499110595.7,286047059.5,N
1499110615.6,286047059.7,N
1499110635.4,286047060.1,N
1499110655.2,286047059.9,N
1499110675.1,286047057.3,N
1499110676.0,286047057.3,N
1499110695.8,286047059.4,N
1499110715.6,286047061.2,N
1499110735.5,286047060.8,N
1499110755.3,286047061.1,N
1499110775.1,286047061.2,N
1499110795.8,286047061.1,N
1499110815.7,286047063.6,N
1499110835.5,286047063.6,N
1499110855.3,286047063.0,N
1499110875.2,286047063.4,N
1499110895.9,286047060.5,N
1499110915.7,286047063.2,N
1499110935.6,286047061.7,N
1499110955.4,286047059.0,N
1499110975.2,286047059.3,N
1499110995.1,286047060.6,N
1499110996.0,286047060.6,N
1499111015.8,286047062.7,N
1499111035.6,286047064.2,N
1499111055.5,286047064.5,N
1499111075.3,286047062.1,N
1499111095.1,286047062.7,N
1499111115.9,286047062.6,N
1499111135.7,286047063.4,N
1499111155.5,286047062.2,N
1499111175.4,286047065.0,N
1499111195.2,286047064.3,N
1499111215.0,286047062.1,N
1499111215.9,286047062.1,N
1499111235.8,286047066.4,N
1499111255.6,286047064.2,N
1499111275.4,286047063.9,N
1499111295.2,286047066.4,N
1499111315.1,286047064.8,N
1499111316.0,286047064.8,N
1499111335.8,286047062.3,N
1499111355.6,286047066.5,N
1499111375.5,286047065.2,N
1499111395.3,286047065.2,N
1499111415.1,286047065.0,N
1499111435.9,286047065.9,N
1499111455.7,286047065.8,N
1499111475.5,286047068.3,N
1499111495.4,286047066.4,N
1499111515.2,286047066.1,N
1499111535.0,286047066.1,N
1499111535.9,286047066.1,N
1499111555.8,286047066.3,N
1499111575.6,286047067.9,N
1499111595.4,286047068.0,N
1499111615.2,286047068.2,N
1499111635.1,286047067.3,N
1499111636.0,286047067.3,N
1499111655.8,286047067.3,N
1499111675.6,286047069.1,N
1499111695.5,286047071.0,N
1499111715.3,286047069.1,N
1499111735.1,286047071.5,N
1499111755.9,286047070.9,N
1499111775.7,286047068.9,N
1499111795.5,286047069.3,N
1499111815.4,286047071.1,N
1499111835.2,286047072.4,N
1499111855.0,286047074.5,N
1499111855.9,286047074.5,N
1499111875.8,286047074.6,N
1499111895.6,286047072.2,N
1499111915.4,286047072.6,N
1499111935.3,286047073.0,N
1499111955.1,286047074.0,N
1499111956.0,286047074.0,N
1499111975.8,286047073.6,N
1499111995.7,286047074.0,N
